Regional Weather Roundup
Issued by NWS

Home | Current Version | Previous Version | Text Only | Print | Product List | Glossary On
Versions: 1 2 3 4 5 6 7 8 9 10 11 12 13 14 15 16 17 18 19 20 21 22 23 24 25 26 27 28
000
ASUS44 KJAN 230710
RWRMS

MISSISSIPPI HOURLY WEATHER ROUNDUP
NATIONAL WEATHER SERVICE JACKSON MS
100 AM CST TUE JAN 23 2018

NOTE: "FAIR: INDICATES FEW OR NO CLOUDS BELOW 12,000 FEET WITH NO
SIGNIFICANT WEATHER AND/OR OBSTRUCTIONS TO VISIBILITY.

MSZ001>002-007>008-010>013-018>021-025>028-034>036-230800-
NORTHWEST MISSISSIPPI

CITY           SKY/WX    TMP DP  RH WIND       PRES   REMARKS
BATESVILLE     FAIR      45  28  52 SW7       29.94S
CLARKSDALE     CLEAR     45  32  61 SW13      29.94S
CLEVELAND      FAIR      43  33  67 SW8       29.97S
GREENWOOD      FAIR      47  32  56 W8        29.99R
GREENVILLE     FAIR      45  29  53 W13       29.98S
TUNICA           N/A     41  32  70 SW12      29.93S
WINONA         FAIR      43  31  62 CALM      29.97S
$$

MSZ003>006-009-014>017-022>024-029>033-037>039-230800-
NORTHEAST MISSISSIPPI

CITY           SKY/WX    TMP DP  RH WIND       PRES   REMARKS
ABERDEEN         N/A     46  36  66 SW10      29.96S
COLUMBUS AFB   FAIR      46  32  58 SW8       29.96S
CORINTH        FAIR      46  28  49 W10G17    29.89R
GOLDN TRIANGLE FAIR      46  30  53 SW7       29.98S
STARKVILLE     FAIR      45  30  57 SW3       29.98S
TUPELO         FAIR      46  28  49 SW5       29.93R
$$

MSZ040-058-230800-
CENTRAL MISSISSIPPI

CITY           SKY/WX    TMP DP  RH WIND       PRES   REMARKS
JACKSON INTL   FAIR      42  29  59 SW6       30.03R
JACKSON HAWKNS FAIR      44  30  57 SW6       30.04S
MADISON        FAIR      41  28  60 SW5       30.03S
MERIDIAN KEY   FAIR      49  30  48 W3        30.03R
MERIDIAN NAS   FAIR      49  29  46 W8        30.02R
RAYMOND          N/A     43  32  65 SW6       30.04S
VICKSBURG VKS  MOSUNNY   46  27  46 W3        30.07R
$$

MSZ059>079-230800-
SOUTH MISSISSIPPI

CITY           SKY/WX    TMP DP  RH WIND       PRES   REMARKS
HATTIESBURG    FAIR      54  27  35 NW8       30.06R
LAUREL         FAIR      47  31  52 W5        30.06R
MCCOMB         FAIR      48  28  46 NW6       30.07S
NATCHEZ        FAIR      42  31  64 SW3       30.09R
PINE BELT      FAIR      49  29  46 NW5       30.07R
$$

MSZ080>082-230800-
COASTAL MISSISSIPPI

CITY           SKY/WX    TMP DP  RH WIND       PRES   REMARKS
BILOXI         FAIR      55  32  42 NW7       30.03R
PASCAGOULA     FAIR      53  36  52 NW7       30.02S
GULFPORT       FAIR      55  31  39 NW16      30.03S
$$

LAZ007>009-015>016-023>026-230800-
NORTHEAST LOUISIANA

CITY           SKY/WX    TMP DP  RH WIND       PRES   REMARKS
BASTROP        FAIR      46  28  49 W8        30.04S
TALLULAH/VBURG FAIR      41  31  67 W3        30.06R
VIDALIA          N/A    N/A N/A N/A MISG      30.09S
$$




USA.gov is the U.S. government's official web portal to all federal, state and local government web resources and services.